| time (UTC) | temp C | wind direction | speed KPH | gust KPH | rain 1hr cm | rain 24hr cm | rain mn cm | humidity % | barometer mb |
| 20260508102047 | 15 | 31 | 8.0 | 0.0 | 0.00 | 0.00 | 0.00 | 24 | 1022.5 |
| 20260508101531 | 15 | 289 | 4.8 | 0.0 | 0.00 | 0.00 | 0.00 | 27 | 1022.5 |
| 20260508101037 | 14 | 204 | 6.4 | 0.0 | 0.00 | 0.00 | 0.00 | 27 | 1022.5 |
| 20260508100559 | 14 | 202 | 6.4 | 0.0 | 0.00 | 0.00 | 0.00 | 27 | 1022.5 |
| 20260508100029 | 13 | 200 | 3.2 | 0.0 | 0.00 | 0.00 | 0.00 | 30 | 1022.5 |
| 20260508095521 | 13 | 252 | 4.8 | 0.0 | 0.00 | 0.00 | 0.00 | 28 | 1022.5 |
| 20260508095101 | 13 | 210 | 6.4 | 0.0 | 0.00 | 0.00 | 0.00 | 27 | 1022.5 |
| 20260508094531 | 13 | 300 | 9.7 | 0.0 | 0.00 | 0.00 | 0.00 | 27 | 1022.4 |
| 20260508094021 | 13 | 316 | 6.4 | 0.0 | 0.00 | 0.00 | 0.00 | 27 | 1022.4 |
| 20260508093538 | 13 | 355 | 6.4 | 0.0 | 0.00 | 0.00 | 0.00 | 29 | 1022.4 |
| 20260508093044 | 13 | 343 | 6.4 | 0.0 | 0.00 | 0.00 | 0.00 | 31 | 1022.4 |
| 20260508092603 | 13 | 251 | 6.4 | 0.0 | 0.00 | 0.00 | 0.00 | 27 | 1022.4 |
| 20260508092030 | 13 | 244 | 9.7 | 0.0 | 0.00 | 0.00 | 0.00 | 28 | 1022.4 |
| 20260508091535 | 13 | 210 | 9.7 | 0.0 | 0.00 | 0.00 | 0.00 | 28 | 1022.4 |
| 20260508091035 | 13 | 314 | 9.7 | 0.0 | 0.00 | 0.00 | 0.00 | 27 | 1022.4 |
| 20260508090545 | 12 | 282 | 11.3 | 0.0 | 0.00 | 0.00 | 0.00 | 27 | 1022.4 |
| 20260508090031 | 12 | 292 | 11.3 | 0.0 | 0.00 | 0.00 | 0.00 | 28 | 1022.4 |
| 20260508085517 | 12 | 307 | 11.3 | 0.0 | 0.00 | 0.00 | 0.00 | 27 | 1022.4 |
| 20260508085037 | 12 | 283 | 9.7 | 0.0 | 0.00 | 0.00 | 0.00 | 28 | 1022.4 |
| 20260508084525 | 12 | 290 | 8.0 | 0.0 | 0.00 | 0.00 | 0.00 | 28 | 1022.3 |
| 20260508084047 | 12 | 259 | 9.7 | 0.0 | 0.00 | 0.00 | 0.00 | 27 | 1022.3 |
| 20260508083541 | 12 | 310 | 11.3 | 0.0 | 0.00 | 0.00 | 0.00 | 27 | 1022.3 |
| 20260508083031 | 12 | 343 | 11.3 | 0.0 | 0.00 | 0.00 | 0.00 | 28 | 1022.3 |
| 20260508082527 | 12 | 264 | 9.7 | 0.0 | 0.00 | 0.00 | 0.00 | 28 | 1022.3 |
| 20260508082043 | 12 | 340 | 8.0 | 0.0 | 0.00 | 0.00 | 0.00 | 28 | 1022.3 |
| 20260508081602 | 12 | 330 | 9.7 | 0.0 | 0.00 | 0.00 | 0.00 | 27 | 1022.3 |
| 20260508081027 | 12 | 314 | 9.7 | 0.0 | 0.00 | 0.00 | 0.00 | 28 | 1022.2 |
| 20260508080539 | 12 | 307 | 9.7 | 0.0 | 0.00 | 0.00 | 0.00 | 31 | 1022.2 |
| 20260508080027 | 12 | 271 | 8.0 | 0.0 | 0.00 | 0.00 | 0.00 | 29 | 1022.1 |
| 20260508075530 | 12 | 231 | 8.0 | 0.0 | 0.00 | 0.00 | 0.00 | 32 | 1022.1 |
| 20260508075039 | 11 | 282 | 9.7 | 0.0 | 0.00 | 0.00 | 0.00 | 31 | 1022.1 |
| 20260508074537 | 11 | 319 | 9.7 | 0.0 | 0.00 | 0.00 | 0.00 | 30 | 1022.2 |
| 20260508074020 | 11 | 296 | 6.4 | 0.0 | 0.00 | 0.00 | 0.00 | 36 | 1021.9 |
| 20260508073530 | 11 | 314 | 9.7 | 0.0 | 0.00 | 0.00 | 0.00 | 38 | 1021.9 |
| 20260508073028 | 11 | 285 | 6.4 | 0.0 | 0.00 | 0.00 | 0.00 | 36 | 1021.8 |
| 20260508072531 | 11 | 252 | 4.8 | 0.0 | 0.00 | 0.00 | 0.00 | 48 | 1021.8 |
| 20260508072035 | 11 | 281 | 6.4 | 0.0 | 0.00 | 0.00 | 0.00 | 44 | 1021.8 |
| 20260508071530 | 11 | 293 | 4.8 | 0.0 | 0.00 | 0.00 | 0.00 | 47 | 1021.7 |
| 20260508071059 | 11 | 228 | 3.2 | 0.0 | 0.00 | 0.00 | 0.00 | 48 | 1021.7 |
| 20260508070523 | 11 | 278 | 4.8 | 0.0 | 0.00 | 0.00 | 0.00 | 51 | 1021.7 |
| 20260508070101 | 11 | 285 | 6.4 | 0.0 | 0.00 | 0.00 | 0.00 | 51 | 1021.7 |
| 20260508065527 | 11 | 247 | 3.2 | 0.0 | 0.00 | 0.00 | 0.00 | 53 | 1021.5 |
| 20260508065044 | 11 | 317 | 1.6 | 0.0 | 0.00 | 0.00 | 0.00 | 55 | 1021.5 |
| 20260508064527 | 10 | 210 | 1.6 | 0.0 | 0.00 | 0.00 | 0.00 | 57 | 1021.5 |
| 20260508064032 | 10 | 210 | 3.2 | 0.0 | 0.00 | 0.00 | 0.00 | 58 | 1021.5 |
| 20260508063537 | 10 | 203 | 1.6 | 0.0 | 0.00 | 0.00 | 0.00 | 61 | 1021.5 |
| 20260508063025 | 10 | 218 | 3.2 | 0.0 | 0.00 | 0.00 | 0.00 | 59 | 1021.3 |
| 20260508062524 | 10 | 218 | 1.6 | 0.0 | 0.00 | 0.00 | 0.00 | 59 | 1021.3 |
| 20260508062055 | 10 | 204 | 0.0 | 0.0 | 0.00 | 0.00 | 0.00 | 61 | 1021.3 |
| 20260508061520 | 9 | 204 | 1.6 | 0.0 | 0.00 | 0.00 | 0.00 | 60 | 1021.2 |
| 20260508061037 | 9 | 204 | 1.6 | 0.0 | 0.00 | 0.00 | 0.00 | 61 | 1021.2 |
| 20260508060522 | 9 | 204 | 1.6 | 0.0 | 0.00 | 0.00 | 0.00 | 62 | 1021.2 |
| 20260508060055 | 9 | 203 | 1.6 | 0.0 | 0.00 | 0.00 | 0.00 | 64 | 1021.2 |
| 20260508055539 | 8 | 204 | 1.6 | 0.0 | 0.00 | 0.00 | 0.00 | 67 | 1021.0 |
| 20260508055043 | 8 | 203 | 1.6 | 0.0 | 0.00 | 0.00 | 0.00 | 68 | 1021.0 |
| 20260508054536 | 8 | 204 | 1.6 | 0.0 | 0.00 | 0.00 | 0.00 | 70 | 1021.0 |
| 20260508054021 | 7 | 200 | 1.6 | 0.0 | 0.00 | 0.00 | 0.00 | 70 | 1020.8 |
| 20260508053527 | 7 | 200 | 1.6 | 0.0 | 0.00 | 0.00 | 0.00 | 72 | 1020.8 |
| 20260508053021 | 7 | 200 | 3.2 | 0.0 | 0.00 | 0.00 | 0.00 | 72 | 1020.6 |
| 20260508052526 | 7 | 194 | 1.6 | 0.0 | 0.00 | 0.00 | 0.00 | 73 | 1020.6 |
| 20260508052029 | 7 | 217 | 1.6 | 0.0 | 0.00 | 0.00 | 0.00 | 75 | 1020.6 |
| 20260508051547 | 6 | 217 | 0.0 | 0.0 | 0.00 | 0.00 | 0.00 | 77 | 1020.4 |
| 20260508051103 | 6 | 217 | 0.0 | 0.0 | 0.00 | 0.00 | 0.00 | 79 | 1020.4 |
| 20260508050548 | 6 | 217 | 0.0 | 0.0 | 0.00 | 0.00 | 0.00 | 81 | 1020.4 |
| 20260508050050 | 5 | 217 | 0.0 | 0.0 | 0.00 | 0.00 | 0.00 | 84 | 1020.4 |
| 20260508045534 | 5 | 217 | 1.6 | 0.0 | 0.00 | 0.00 | 0.00 | 85 | 1020.3 |
| 20260508045021 | 4 | 217 | 1.6 | 0.0 | 0.00 | 0.00 | 0.00 | 87 | 1020.3 |
| 20260508044555 | 3 | 217 | 1.6 | 0.0 | 0.00 | 0.00 | 0.00 | 90 | 1020.3 |
| 20260508044039 | 3 | 217 | 0.0 | 0.0 | 0.00 | 0.00 | 0.00 | 92 | 1020.2 |
| 20260508043524 | 3 | 217 | 0.0 | 0.0 | 0.00 | 0.00 | 0.00 | 94 | 1020.2 |
| 20260508043040 | 2 | 217 | 0.0 | 0.0 | 0.00 | 0.00 | 0.00 | 95 | 1020.2 |
| 20260508042541 | 2 | 217 | 0.0 | 0.0 | 0.00 | 0.00 | 0.00 | 96 | 1020.1 |
| 20260508042027 | 2 | 221 | 0.0 | 0.0 | 0.00 | 0.00 | 0.00 | 97 | 1020.1 |
| 20260508041542 | 1 | 221 | 0.0 | 0.0 | 0.00 | 0.00 | 0.00 | 97 | 1020.1 |
| 20260508041026 | 1 | 217 | 0.0 | 0.0 | 0.00 | 0.00 | 0.00 | 97 | 1019.9 |
| 20260508040531 | 1 | 217 | 0.0 | 0.0 | 0.00 | 0.00 | 0.00 | 97 | 1019.9 |
| 20260508040030 | 0 | 217 | 1.6 | 0.0 | 0.00 | 0.00 | 0.00 | 97 | 1019.7 |
| 20260508035607 | 0 | 217 | 1.6 | 0.0 | 0.00 | 0.00 | 0.00 | 97 | 1019.7 |
| 20260508035054 | 0 | 223 | 1.6 | 0.0 | 0.00 | 0.00 | 0.00 | 96 | 1019.7 |
| 20260508034608 | 0 | 224 | 1.6 | 0.0 | 0.00 | 0.00 | 0.00 | 96 | 1019.7 |
| 20260508034033 | 0 | 238 | 1.6 | 0.0 | 0.00 | 0.00 | 0.00 | 96 | 1019.6 |
| 20260508033524 | 0 | 238 | 1.6 | 0.0 | 0.00 | 0.00 | 0.00 | 96 | 1019.6 |
| 20260508033029 | -1 | 238 | 1.6 | 0.0 | 0.00 | 0.00 | 0.00 | 96 | 1019.5 |
| 20260508032540 | -1 | 238 | 0.0 | 0.0 | 0.00 | 0.00 | 0.00 | 95 | 1019.5 |
| 20260508032026 | -1 | 241 | 1.6 | 0.0 | 0.00 | 0.00 | 0.00 | 95 | 1019.5 |
| 20260508031534 | -1 | 241 | 1.6 | 0.0 | 0.00 | 0.00 | 0.00 | 94 | 1019.5 |
| 20260508031033 | -1 | 242 | 0.0 | 0.0 | 0.00 | 0.00 | 0.00 | 94 | 1019.3 |
| 20260508030539 | -1 | 242 | 0.0 | 0.0 | 0.00 | 0.00 | 0.00 | 94 | 1019.3 |
| 20260508030029 | -2 | 242 | 0.0 | 0.0 | 0.00 | 0.00 | 0.00 | 94 | 1019.2 |
| 20260508025552 | -2 | 242 | 0.0 | 0.0 | 0.00 | 0.00 | 0.00 | 94 | 1019.2 |
| 20260508025021 | -2 | 242 | 0.0 | 0.0 | 0.00 | 0.00 | 0.00 | 93 | 1019.2 |
| 20260508024530 | -2 | 242 | 0.0 | 0.0 | 0.00 | 0.00 | 0.00 | 93 | 1019.1 |
| 20260508024020 | -2 | 242 | 0.0 | 0.0 | 0.00 | 0.00 | 0.00 | 93 | 1019.1 |
| 20260508023530 | -2 | 242 | 0.0 | 0.0 | 0.00 | 0.00 | 0.00 | 93 | 1019.1 |
| 20260508023030 | -2 | 242 | 0.0 | 0.0 | 0.00 | 0.00 | 0.00 | 92 | 1019.0 |
| 20260508022545 | -2 | 242 | 0.0 | 0.0 | 0.00 | 0.00 | 0.00 | 92 | 1019.0 |
| 20260508022042 | -2 | 242 | 0.0 | 0.0 | 0.00 | 0.00 | 0.00 | 92 | 1019.0 |
| 20260508021534 | -2 | 242 | 0.0 | 0.0 | 0.00 | 0.00 | 0.00 | 92 | 1019.0 |
| 20260508021021 | -2 | 242 | 0.0 | 0.0 | 0.00 | 0.00 | 0.00 | 92 | 1018.9 |
| 20260508020525 | -2 | 242 | 0.0 | 0.0 | 0.00 | 0.00 | 0.00 | 92 | 1018.9 |
| 20260508020047 | -2 | 242 | 0.0 | 0.0 | 0.00 | 0.00 | 0.00 | 92 | 1018.7 |
| 20260508015552 | -2 | 242 | 0.0 | 0.0 | 0.00 | 0.00 | 0.00 | 91 | 1018.7 |
| 20260508015020 | -2 | 242 | 0.0 | 0.0 | 0.00 | 0.00 | 0.00 | 91 | 1018.7 |
| 20260508014537 | -2 | 242 | 0.0 | 0.0 | 0.00 | 0.00 | 0.00 | 91 | 1018.7 |
| 20260508014021 | -2 | 242 | 0.0 | 0.0 | 0.00 | 0.00 | 0.00 | 91 | 1018.6 |
| 20260508013539 | -2 | 242 | 0.0 | 0.0 | 0.00 | 0.00 | 0.00 | 91 | 1018.6 |
| 20260508013030 | -2 | 242 | 0.0 | 0.0 | 0.00 | 0.00 | 0.00 | 91 | 1018.5 |
| 20260508012519 | -2 | 242 | 0.0 | 0.0 | 0.00 | 0.00 | 0.00 | 90 | 1018.5 |
| 20260508012026 | -2 | 242 | 0.0 | 0.0 | 0.00 | 0.00 | 0.00 | 90 | 1018.5 |
| 20260508011542 | -2 | 242 | 0.0 | 0.0 | 0.00 | 0.00 | 0.00 | 90 | 1018.5 |
| 20260508011053 | -2 | 242 | 0.0 | 0.0 | 0.00 | 0.00 | 0.00 | 90 | 1018.3 |
| 20260508010522 | -2 | 242 | 0.0 | 0.0 | 0.00 | 0.00 | 0.00 | 89 | 1018.3 |
| 20260508010044 | -1 | 242 | 0.0 | 0.0 | 0.00 | 0.00 | 0.00 | 89 | 1018.3 |
| 20260508005531 | -1 | 242 | 0.0 | 0.0 | 0.00 | 0.00 | 0.00 | 89 | 1018.1 |
| 20260508005022 | -1 | 242 | 0.0 | 0.0 | 0.00 | 0.00 | 0.00 | 89 | 1018.1 |
| 20260508004601 | -1 | 242 | 0.0 | 0.0 | 0.00 | 0.00 | 0.00 | 89 | 1018.2 |
| 20260508004025 | -1 | 242 | 0.0 | 0.0 | 0.00 | 0.00 | 0.00 | 88 | 1018.1 |
| 20260508003600 | -1 | 242 | 0.0 | 0.0 | 0.00 | 0.00 | 0.00 | 88 | 1018.1 |
| 20260508003026 | -1 | 242 | 0.0 | 0.0 | 0.00 | 0.00 | 0.00 | 88 | 1018.0 |
| 20260508002533 | -1 | 242 | 0.0 | 0.0 | 0.00 | 0.00 | 0.00 | 88 | 1018.0 |
| 20260508002021 | -1 | 242 | 0.0 | 0.0 | 0.00 | 0.00 | 0.00 | 88 | 1018.0 |
| 20260508001539 | -1 | 242 | 0.0 | 0.0 | 0.00 | 0.00 | 0.00 | 88 | 1018.0 |
| 20260508001043 | -1 | 242 | 0.0 | 0.0 | 0.00 | 0.00 | 0.00 | 88 | 1017.8 |
| 20260508000531 | -1 | 242 | 0.0 | 0.0 | 0.00 | 0.00 | 0.00 | 88 | 1017.8 |
| 20260508000049 | -1 | 242 | 0.0 | 0.0 | 0.00 | 0.00 | 0.00 | 87 | 1017.8 |
| 20260507235535 | -1 | 242 | 0.0 | 0.0 | 0.00 | 0.00 | 0.00 | 87 | 1017.6 |
| 20260507235044 | -1 | 242 | 0.0 | 0.0 | 0.00 | 0.00 | 0.00 | 86 | 1017.6 |
| 20260507234539 | -1 | 242 | 0.0 | 0.0 | 0.00 | 0.00 | 0.00 | 86 | 1017.6 |
| 20260507234048 | -1 | 242 | 0.0 | 0.0 | 0.00 | 0.00 | 0.00 | 86 | 1017.6 |
| 20260507233542 | 0 | 242 | 0.0 | 0.0 | 0.00 | 0.00 | 0.00 | 86 | 1017.6 |
| 20260507233030 | 0 | 242 | 0.0 | 0.0 | 0.00 | 0.00 | 0.00 | 86 | 1017.4 |
| 20260507232539 | 0 | 242 | 0.0 | 0.0 | 0.00 | 0.00 | 0.00 | 85 | 1017.4 |
| 20260507232038 | 0 | 242 | 0.0 | 0.0 | 0.00 | 0.00 | 0.00 | 85 | 1017.4 |
| 20260507231523 | 0 | 242 | 0.0 | 0.0 | 0.00 | 0.00 | 0.00 | 85 | 1017.2 |
| 20260507231033 | 0 | 242 | 0.0 | 0.0 | 0.00 | 0.00 | 0.00 | 85 | 1017.2 |
| 20260507230523 | 0 | 242 | 0.0 | 0.0 | 0.00 | 0.00 | 0.00 | 85 | 1017.2 |
| 20260507230044 | 0 | 242 | 0.0 | 0.0 | 0.00 | 0.00 | 0.00 | 85 | 1017.1 |
| 20260507225532 | 0 | 242 | 0.0 | 0.0 | 0.00 | 0.00 | 0.00 | 85 | 1017.1 |
| 20260507225023 | 0 | 242 | 0.0 | 0.0 | 0.00 | 0.00 | 0.00 | 85 | 1017.1 |
| 20260507224538 | 0 | 242 | 0.0 | 0.0 | 0.00 | 0.00 | 0.00 | 85 | 1017.1 |
| 20260507224026 | 0 | 242 | 0.0 | 0.0 | 0.00 | 0.00 | 0.00 | 85 | 1017.0 |
| 20260507223530 | 0 | 242 | 0.0 | 0.0 | 0.00 | 0.00 | 0.00 | 85 | 1017.0 |
| 20260507223050 | 0 | 242 | 0.0 | 0.0 | 0.00 | 0.00 | 0.00 | 85 | 1016.9 |
| 20260507222535 | 0 | 242 | 0.0 | 0.0 | 0.00 | 0.00 | 0.00 | 85 | 1016.9 |
| 20260507222026 | 0 | 274 | 0.0 | 0.0 | 0.00 | 0.00 | 0.00 | 85 | 1016.9 |
| 20260507221542 | 0 | 274 | 0.0 | 0.0 | 0.00 | 0.00 | 0.00 | 85 | 1016.9 |
| 20260507221050 | 0 | 275 | 0.0 | 0.0 | 0.00 | 0.00 | 0.00 | 84 | 1016.8 |
| 20260507220549 | 0 | 275 | 0.0 | 0.0 | 0.00 | 0.00 | 0.00 | 84 | 1016.8 |
| 20260507220035 | 0 | 275 | 0.0 | 0.0 | 0.00 | 0.00 | 0.00 | 84 | 1016.8 |
| 20260507215539 | 0 | 275 | 0.0 | 0.0 | 0.00 | 0.00 | 0.00 | 83 | 1016.6 |
| 20260507215026 | 0 | 275 | 0.0 | 0.0 | 0.00 | 0.00 | 0.00 | 83 | 1016.6 |
| 20260507214531 | 0 | 275 | 0.0 | 0.0 | 0.00 | 0.00 | 0.00 | 82 | 1016.5 |
| 20260507214046 | 0 | 275 | 0.0 | 0.0 | 0.00 | 0.00 | 0.00 | 82 | 1016.5 |
| 20260507213534 | 0 | 275 | 0.0 | 0.0 | 0.00 | 0.00 | 0.00 | 81 | 1016.5 |
| 20260507213023 | 0 | 275 | 0.0 | 0.0 | 0.00 | 0.00 | 0.00 | 81 | 1016.4 |
| 20260507212541 | 0 | 275 | 0.0 | 0.0 | 0.00 | 0.00 | 0.00 | 80 | 1016.4 |
| 20260507212053 | 0 | 275 | 0.0 | 0.0 | 0.00 | 0.00 | 0.00 | 80 | 1016.4 |
| 20260507211522 | 0 | 275 | 0.0 | 0.0 | 0.00 | 0.00 | 0.00 | 80 | 1016.1 |
| 20260507211040 | 0 | 275 | 0.0 | 0.0 | 0.00 | 0.00 | 0.00 | 80 | 1016.1 |
| 20260507210528 | 0 | 275 | 0.0 | 0.0 | 0.00 | 0.00 | 0.00 | 79 | 1016.1 |
| 20260507210103 | 0 | 275 | 0.0 | 0.0 | 0.00 | 0.00 | 0.00 | 78 | 1016.1 |
| 20260507205534 | 1 | 275 | 0.0 | 0.0 | 0.00 | 0.00 | 0.00 | 78 | 1016.0 |
| 20260507205041 | 1 | 275 | 0.0 | 0.0 | 0.00 | 0.00 | 0.00 | 78 | 1016.0 |
| 20260507204528 | 1 | 275 | 0.0 | 0.0 | 0.00 | 0.00 | 0.00 | 77 | 1016.0 |
| 20260507204106 | 1 | 275 | 0.0 | 0.0 | 0.00 | 0.00 | 0.00 | 77 | 1016.0 |
| 20260507203534 | 1 | 275 | 0.0 | 0.0 | 0.00 | 0.00 | 0.00 | 77 | 1016.0 |
| 20260507203040 | 1 | 275 | 0.0 | 0.0 | 0.00 | 0.00 | 0.00 | 76 | 1016.0 |
| 20260507202559 | 1 | 275 | 0.0 | 0.0 | 0.00 | 0.00 | 0.00 | 76 | 1015.7 |
| 20260507202024 | 1 | 275 | 0.0 | 0.0 | 0.00 | 0.00 | 0.00 | 75 | 1015.7 |
| 20260507201546 | 2 | 275 | 0.0 | 0.0 | 0.00 | 0.00 | 0.00 | 73 | 1015.6 |
| 20260507201042 | 2 | 275 | 0.0 | 0.0 | 0.00 | 0.00 | 0.00 | 73 | 1015.6 |
| 20260507200531 | 2 | 275 | 0.0 | 0.0 | 0.00 | 0.00 | 0.00 | 72 | 1015.6 |
| 20260507200051 | 2 | 275 | 0.0 | 0.0 | 0.00 | 0.00 | 0.00 | 72 | 1015.5 |
| 20260507195539 | 2 | 275 | 0.0 | 0.0 | 0.00 | 0.00 | 0.00 | 70 | 1015.5 |
| 20260507195028 | 3 | 275 | 0.0 | 0.0 | 0.00 | 0.00 | 0.00 | 70 | 1015.5 |
| 20260507194551 | 3 | 275 | 0.0 | 0.0 | 0.00 | 0.00 | 0.00 | 69 | 1015.2 |
| 20260507194039 | 3 | 275 | 0.0 | 0.0 | 0.00 | 0.00 | 0.00 | 68 | 1015.2 |
| 20260507193529 | 3 | 275 | 0.0 | 0.0 | 0.00 | 0.00 | 0.00 | 68 | 1015.2 |
| 20260507193028 | 3 | 275 | 0.0 | 0.0 | 0.00 | 0.00 | 0.00 | 67 | 1015.0 |
| 20260507192520 | 4 | 275 | 0.0 | 0.0 | 0.00 | 0.00 | 0.00 | 66 | 1015.0 |
| 20260507192027 | 4 | 275 | 0.0 | 0.0 | 0.00 | 0.00 | 0.00 | 65 | 1015.0 |
| 20260507191543 | 5 | 275 | 1.6 | 0.0 | 0.00 | 0.00 | 0.00 | 64 | 1015.0 |
| 20260507191102 | 5 | 275 | 1.6 | 0.0 | 0.00 | 0.00 | 0.00 | 63 | 1015.0 |
| 20260507190528 | 5 | 275 | 1.6 | 0.0 | 0.00 | 0.00 | 0.00 | 63 | 1015.0 |
| 20260507190039 | 5 | 268 | 3.2 | 0.0 | 0.00 | 0.00 | 0.00 | 62 | 1015.0 |
| 20260507185526 | 5 | 266 | 4.8 | 0.0 | 0.00 | 0.00 | 0.00 | 62 | 1014.9 |
| 20260507185028 | 5 | 257 | 4.8 | 0.0 | 0.00 | 0.00 | 0.00 | 61 | 1014.9 |
| 20260507184525 | 5 | 258 | 4.8 | 0.0 | 0.00 | 0.00 | 0.00 | 61 | 1014.6 |
| 20260507184034 | 5 | 281 | 4.8 | 0.0 | 0.00 | 0.00 | 0.00 | 60 | 1014.6 |
| 20260507183522 | 6 | 279 | 6.4 | 0.0 | 0.00 | 0.00 | 0.00 | 60 | 1014.6 |
| 20260507183032 | 6 | 258 | 4.8 | 0.0 | 0.00 | 0.00 | 0.00 | 60 | 1014.5 |
| 20260507182527 | 6 | 290 | 4.8 | 0.0 | 0.00 | 0.00 | 0.00 | 59 | 1014.5 |
| 20260507182026 | 6 | 290 | 4.8 | 0.0 | 0.00 | 0.00 | 0.00 | 59 | 1014.5 |
| 20260507181531 | 6 | 300 | 4.8 | 0.0 | 0.00 | 0.00 | 0.00 | 59 | 1014.4 |
| 20260507181039 | 6 | 272 | 6.4 | 0.0 | 0.00 | 0.00 | 0.00 | 58 | 1014.4 |
| 20260507180532 | 6 | 293 | 8.0 | 0.0 | 0.00 | 0.00 | 0.00 | 57 | 1014.4 |
| 20260507180030 | 6 | 276 | 6.4 | 0.0 | 0.00 | 0.00 | 0.00 | 57 | 1014.2 |
| 20260507175536 | 6 | 274 | 6.4 | 0.0 | 0.00 | 0.00 | 0.00 | 56 | 1014.2 |
| 20260507175025 | 6 | 285 | 8.0 | 0.0 | 0.00 | 0.00 | 0.00 | 55 | 1014.2 |
| 20260507174605 | 7 | 259 | 8.0 | 0.0 | 0.00 | 0.00 | 0.00 | 54 | 1014.2 |
| 20260507174034 | 7 | 245 | 8.0 | 0.0 | 0.00 | 0.00 | 0.00 | 53 | 1014.0 |
| 20260507173521 | 7 | 274 | 9.7 | 0.0 | 0.00 | 0.00 | 0.00 | 52 | 1014.0 |
| 20260507173035 | 7 | 252 | 9.7 | 0.0 | 0.00 | 0.00 | 0.00 | 51 | 1014.0 |
| 20260507172523 | 7 | 274 | 8.0 | 0.0 | 0.00 | 0.00 | 0.00 | 49 | 1013.9 |
| 20260507172032 | 7 | 281 | 9.7 | 0.0 | 0.00 | 0.00 | 0.00 | 48 | 1013.9 |
| 20260507171532 | 7 | 278 | 14.5 | 0.0 | 0.00 | 0.00 | 0.00 | 49 | 1013.7 |
| 20260507171039 | 7 | 241 | 11.3 | 0.0 | 0.00 | 0.00 | 0.00 | 47 | 1013.7 |
| 20260507170526 | 8 | 278 | 8.0 | 0.0 | 0.00 | 0.00 | 0.00 | 51 | 1013.7 |
| 20260507170042 | 8 | 278 | 9.7 | 0.0 | 0.00 | 0.00 | 0.00 | 51 | 1013.7 |
| 20260507165527 | 8 | 254 | 12.9 | 0.0 | 0.00 | 0.00 | 0.00 | 49 | 1013.5 |
| 20260507165036 | 8 | 255 | 11.3 | 0.0 | 0.00 | 0.00 | 0.00 | 47 | 1013.5 |
| 20260507164524 | 8 | 295 | 9.7 | 0.0 | 0.00 | 0.00 | 0.00 | 46 | 1013.3 |
| 20260507164032 | 8 | 265 | 11.3 | 0.0 | 0.00 | 0.00 | 0.00 | 45 | 1013.3 |
| 20260507163526 | 8 | 290 | 12.9 | 0.0 | 0.00 | 0.00 | 0.00 | 44 | 1013.3 |
| 20260507163030 | 8 | 288 | 12.9 | 0.0 | 0.00 | 0.00 | 0.00 | 45 | 1013.1 |
| 20260507162523 | 8 | 272 | 9.7 | 0.0 | 0.00 | 0.00 | 0.00 | 44 | 1013.1 |
| 20260507162032 | 9 | 257 | 9.7 | 0.0 | 0.00 | 0.00 | 0.00 | 44 | 1013.1 |
| 20260507161530 | 8 | 216 | 9.7 | 0.0 | 0.00 | 0.00 | 0.00 | 43 | 1013.0 |
| 20260507161020 | 9 | 289 | 9.7 | 0.0 | 0.00 | 0.00 | 0.00 | 40 | 1013.0 |
| 20260507160530 | 9 | 255 | 9.7 | 0.0 | 0.00 | 0.00 | 0.00 | 41 | 1013.0 |
| 20260507160049 | 9 | 218 | 8.0 | 0.0 | 0.00 | 0.00 | 0.00 | 41 | 1013.0 |
| 20260507155556 | 9 | 250 | 9.7 | 0.0 | 0.00 | 0.00 | 0.00 | 41 | 1012.9 |
| 20260507155057 | 10 | 275 | 9.7 | 0.0 | 0.00 | 0.00 | 0.00 | 40 | 1013.0 |
| 20260507154522 | 10 | 293 | 8.0 | 0.0 | 0.00 | 0.00 | 0.00 | 39 | 1012.8 |
| 20260507154025 | 10 | 276 | 6.4 | 0.0 | 0.00 | 0.00 | 0.00 | 41 | 1012.8 |
| 20260507153541 | 10 | 279 | 9.7 | 0.0 | 0.00 | 0.00 | 0.00 | 40 | 1012.8 |
| 20260507153028 | 10 | 250 | 12.9 | 0.0 | 0.00 | 0.00 | 0.00 | 43 | 1012.6 |
| 20260507152533 | 9 | 258 | 12.9 | 0.0 | 0.00 | 0.00 | 0.00 | 42 | 1012.6 |
| 20260507152045 | 9 | 233 | 14.5 | 0.0 | 0.00 | 0.00 | 0.00 | 41 | 1012.6 |
| 20260507151541 | 9 | 279 | 14.5 | 0.0 | 0.00 | 0.00 | 0.00 | 41 | 1012.6 |
| 20260507151031 | 9 | 255 | 12.9 | 0.0 | 0.00 | 0.00 | 0.00 | 40 | 1012.5 |
| 20260507150540 | 10 | 319 | 14.5 | 0.0 | 0.00 | 0.00 | 0.00 | 40 | 1012.5 |
| 20260507150037 | 10 | 245 | 12.9 | 0.0 | 0.00 | 0.00 | 0.00 | 36 | 1012.5 |
| 20260507145521 | 10 | 310 | 12.9 | 0.0 | 0.00 | 0.00 | 0.00 | 37 | 1012.4 |
| 20260507145028 | 10 | 272 | 9.7 | 0.0 | 0.00 | 0.00 | 0.00 | 36 | 1012.4 |
| 20260507144524 | 10 | 245 | 9.7 | 0.0 | 0.00 | 0.00 | 0.00 | 39 | 1012.2 |
| 20260507144032 | 10 | 247 | 11.3 | 0.0 | 0.00 | 0.00 | 0.00 | 38 | 1012.2 |
| 20260507143539 | 10 | 233 | 12.9 | 0.0 | 0.00 | 0.00 | 0.00 | 37 | 1012.3 |
| 20260507143059 | 10 | 269 | 9.7 | 0.0 | 0.00 | 0.00 | 0.00 | 40 | 1012.3 |
| 20260507142524 | 10 | 258 | 11.3 | 0.0 | 0.00 | 0.00 | 0.00 | 44 | 1011.9 |
| 20260507142031 | 10 | 257 | 11.3 | 0.0 | 0.00 | 0.00 | 0.00 | 45 | 1011.9 |
| 20260507141552 | 10 | 274 | 9.7 | 0.0 | 0.00 | 0.00 | 0.00 | 43 | 1011.8 |
| 20260507141023 | 10 | 223 | 8.0 | 0.0 | 0.00 | 0.00 | 0.00 | 43 | 1011.8 |
| 20260507140541 | 11 | 238 | 8.0 | 0.0 | 0.00 | 0.00 | 0.00 | 41 | 1011.8 |
| 20260507140057 | 11 | 285 | 6.4 | 0.0 | 0.00 | 0.00 | 0.00 | 44 | 1011.8 |
| 20260507135535 | 11 | 221 | 6.4 | 0.0 | 0.00 | 0.00 | 0.00 | 43 | 1011.8 |
| 20260507135032 | 11 | 192 | 8.0 | 0.0 | 0.00 | 0.00 | 0.00 | 43 | 1011.8 |
| 20260507134539 | 11 | 254 | 8.0 | 0.0 | 0.00 | 0.00 | 0.00 | 41 | 1011.8 |
| 20260507134027 | 12 | 173 | 8.0 | 0.0 | 0.00 | 0.00 | 0.00 | 41 | 1011.5 |
| 20260507133543 | 12 | 233 | 9.7 | 0.0 | 0.00 | 0.00 | 0.00 | 38 | 1011.5 |
| 20260507133028 | 11 | 223 | 6.4 | 0.0 | 0.00 | 0.00 | 0.00 | 40 | 1011.5 |
| 20260507132537 | 11 | 186 | 4.8 | 0.0 | 0.00 | 0.00 | 0.00 | 49 | 1011.5 |
| 20260507132027 | 10 | 261 | 4.8 | 0.0 | 0.00 | 0.00 | 0.00 | 46 | 1011.5 |
| 20260507131544 | 11 | 180 | 6.4 | 0.0 | 0.00 | 0.00 | 0.00 | 47 | 1011.5 |
| 20260507131057 | 11 | 185 | 8.0 | 0.0 | 0.00 | 0.00 | 0.00 | 44 | 1011.4 |
| 20260507130523 | 11 | 240 | 6.4 | 0.0 | 0.00 | 0.00 | 0.00 | 43 | 1011.4 |
| 20260507130046 | 12 | 213 | 8.0 | 0.0 | 0.00 | 0.00 | 0.00 | 41 | 1011.3 |
| 20260507125529 | 12 | 203 | 8.0 | 0.0 | 0.00 | 0.00 | 0.00 | 40 | 1011.3 |
| 20260507125047 | 12 | 206 | 8.0 | 0.0 | 0.00 | 0.00 | 0.00 | 43 | 1011.3 |
| 20260507124530 | 12 | 218 | 8.0 | 0.0 | 0.00 | 0.00 | 0.00 | 44 | 1011.4 |
| 20260507124032 | 12 | 146 | 6.4 | 0.0 | 0.00 | 0.00 | 0.00 | 45 | 1011.4 |
| 20260507123554 | 12 | 168 | 4.8 | 0.0 | 0.00 | 0.00 | 0.00 | 46 | 1011.4 |
| 20260507123021 | 11 | 186 | 6.4 | 0.0 | 0.00 | 0.00 | 0.00 | 45 | 1011.4 |
| 20260507122558 | 12 | 193 | 6.4 | 0.0 | 0.00 | 0.00 | 0.00 | 44 | 1011.4 |
| 20260507122046 | 12 | 218 | 9.7 | 0.0 | 0.00 | 0.00 | 0.00 | 43 | 1011.4 |
| 20260507121521 | 11 | 152 | 9.7 | 0.0 | 0.00 | 0.00 | 0.00 | 45 | 1011.3 |
| 20260507121028 | 11 | 168 | 9.7 | 0.0 | 0.00 | 0.00 | 0.00 | 43 | 1011.3 |
| 20260507120546 | 12 | 176 | 8.0 | 0.0 | 0.00 | 0.00 | 0.00 | 40 | 1011.3 |
| 20260507120030 | 11 | 170 | 8.0 | 0.0 | 0.00 | 0.00 | 0.00 | 44 | 1011.5 |
| 20260507115547 | 11 | 200 | 9.7 | 0.0 | 0.00 | 0.00 | 0.00 | 46 | 1011.5 |
| 20260507115100 | 11 | 183 | 8.0 | 0.0 | 0.00 | 0.00 | 0.00 | 41 | 1011.5 |
| 20260507114601 | 12 | 190 | 8.0 | 0.0 | 0.00 | 0.00 | 0.00 | 41 | 1011.5 |
| 20260507114026 | 12 | 209 | 9.7 | 0.0 | 0.00 | 0.00 | 0.00 | 41 | 1011.4 |
| 20260507113542 | 12 | 220 | 11.3 | 0.0 | 0.00 | 0.00 | 0.00 | 41 | 1011.4 |
| 20260507113028 | 12 | 163 | 9.7 | 0.0 | 0.00 | 0.00 | 0.00 | 41 | 1011.4 |
| 20260507112543 | 11 | 190 | 8.0 | 0.0 | 0.00 | 0.00 | 0.00 | 46 | 1011.4 |
| 20260507112022 | 11 | 187 | 9.7 | 0.0 | 0.00 | 0.00 | 0.00 | 39 | 1011.4 |
| 20260507111601 | 11 | 187 | 9.7 | 0.0 | 0.00 | 0.00 | 0.00 | 36 | 1011.4 |
| 20260507111026 | 11 | 187 | 6.4 | 0.0 | 0.00 | 0.00 | 0.00 | 39 | 1011.3 |
| 20260507110535 | 11 | 192 | 6.4 | 0.0 | 0.00 | 0.00 | 0.00 | 39 | 1011.3 |
| 20260507110050 | 10 | 206 | 6.4 | 0.0 | 0.00 | 0.00 | 0.00 | 35 | 1011.3 |
| 20260507105537 | 10 | 182 | 6.4 | 0.0 | 0.00 | 0.00 | 0.00 | 36 | 1011.3 |
| 20260507105023 | 11 | 180 | 4.8 | 0.0 | 0.00 | 0.00 | 0.00 | 35 | 1011.3 |
| 20260507104530 | 10 | 182 | 6.4 | 0.0 | 0.00 | 0.00 | 0.00 | 37 | 1011.3 |
| 20260507104021 | 10 | 178 | 6.4 | 0.0 | 0.00 | 0.00 | 0.00 | 33 | 1011.3 |
| 20260507103539 | 10 | 152 | 4.8 | 0.0 | 0.00 | 0.00 | 0.00 | 33 | 1011.3 |
| 20260507103028 | 10 | 156 | 6.4 | 0.0 | 0.00 | 0.00 | 0.00 | 35 | 1011.3 |
| 20260507102539 | 10 | 166 | 6.4 | 0.0 | 0.00 | 0.00 | 0.00 | 34 | 1011.3 |